www.pogodaiklimat.ru
ПОГОДА в Кота-Кинабалу
Время
(UTC), дата
15 8.12
18 8.12
21 8.12
00 9.12
03 9.12
06 9.12
09 9.12
12 9.12
15 9.12
18 9.12
21 9.12
00 10.12
03 10.12
06 10.12
09 10.12
12 10.12
15 10.12
18 10.12
21 10.12
00 11.12
03 11.12
06 11.12
09 11.12
12 11.12
15 11.12
18 11.12
21 11.12
00 12.12
03 12.12
06 12.12
09 12.12
12 12.12
15 12.12
18 12.12
21 12.12
00 13.12
03 13.12
06 13.12
09 13.12
12 13.12
15 13.12
18 13.12
21 13.12
00 14.12
03 14.12
06 14.12
09 14.12
12 14.12
15 14.12
18 14.12
21 14.12
00 15.12
03 15.12
06 15.12
09 15.12
12 15.12
Ветер
(напр.,м/с)
Видим. Явления Облачность Т
(С)
Тd
(С)
f
(%)
Тe
(С)
Тes
(С)
Комфортность P
(гПа)
Po
(гПа)
Тmin
(С)
Tmax
(С)
R
(мм)
R24
(мм)
S
(см)
ЮВ 2 18 км зарница {дождь} 9/5 450 м
[Cb cap Ac lent Cs]
+24.8 +23.6 93 +34 +34 очень
душно
1011.6 1011.3
ЮВ 2 18 км зарница 9/3 450 м
[Cb cap Ac lent Cs]
+24.1 +22.6 91 +32 +32 очень
душно
1010.2 1009.9 0.0
В 2 18 км 9/3 450 м
[Cu Sc Ac lent Cs]
+23.3 +22.4 95 +32 +32 очень
душно
1010.1 1009.8
В 3 28 км 9/4 480 м
[Cb cap Ac lent Cs]
+25.4 +22.8 86 +34 +35 очень
душно
1011.2 1010.9 +23.2 7 7.0
З 2 28 км 9/1 420 м
[Cu Sc Ac lent Cs]
+30.2 +24.8 73 +43 +51 опасность
перегрева
1011.8 1011.5
З 4 28 км 9/1 420 м
[Cu Sc Ac trans Ci sp]
+30.8 +25.9 75 +46 +51 опасность
перегрева
1008.8 1008.5
СЗ 4 9000 м слаб. дождь 9/5 420 м
[Cb cap Ac lent Cs]
+29.8 +25.7 79 +44 +45 опасность
перегрева
1008.7 1008.4
ЮВ 3 4000 м гроза, ливневой дождь 10/8 1000 м
[Cb cap Ac und Cs]
+24.4 +23.9 97 +33 +33 очень
душно
1011.5 1011.2 +31.7 65
ЮВ 1 18 км в посл. час дождь {гроза} 9/6 420 м
[Cu Sc Ac lent Cs]
+24.4 +23.6 95 +33 +33 очень
душно
1011.9 1011.6
штиль 0 12 км слаб. дождь 9/4 400 м
[Cu Sc Ac lent Cs]
+24.5 +23.6 95 +33 +33 очень
душно
1010.9 1010.6 4
ЮВ 2 18 км {дождь} 9/1 420 м
[Cu Sc Ac lent Cs]
+24.3 +23.5 95 +33 +33 очень
душно
1010.6 1010.3
В 1 26 км {дождь} 9/3 480 м
[Cb cap Ac lent Cs]
+26.5 +23.9 86 +37 +38 очень
душно
1011.7 1011.4 +24.2 69 69.4
СЗ 1 28 км 9/1 420 м
[Cu Sc Ac lent Cs]
+28.2 +24.3 79 +39 +48 очень
душно
1010.9 1010.6
С 3 25 км 9/3 420 м
[Cu Sc Ac lent Cs]
+29.7 +24.8 75 +42 +47 опасность
перегрева
1008.7 1008.4
С 3 25 км 9/3 420 м
[Cu Sc Ac lent Cs]
+28.5 +24.3 78 +40 +40 очень
душно
1008.3 1008.0
В 2 18 км 9/1 420 м
[Cu Sc Ac trans Cs]
+26.9 +24.6 87 +38 +38 очень
душно
1009.5 1009.2 +29.8
ЮВ 2 18 км 9/1 420 м
[Cu Sc Ac lent Cs]
+25.9 +24.6 93 +37 +37 очень
душно
1010.3 1010.0
В 2 18 км 9/1 420 м
[Cu Sc Ac lent Cs]
+25.0 +23.7 93 +34 +34 очень
душно
1008.8 1008.5
В 2 18 км 9/1 420 м
[Cu Sc Ac lent Cs]
+24.1 +23.0 94 +32 +32 очень
душно
1008.4 1008.1
В 1 25 км 9/1 50 м
[Cu Sc Ac lent Cs]
+26.9 +23.7 83 +37 +39 очень
душно
1010.0 1009.7 +24.0
СЗ 2 25 км 9/1 450 м
[Cu Sc Ac lent Cs]
+30.5 +25.4 74 +44 +53 опасность
перегрева
1010.2 1009.9
СЗ 2 25 км 9/3 420 м
[Cu Sc Ac lent Cs]
+32.1 +25.9 70 +48 +53 опасность
перегрева
1007.5 1007.2
В 3 8000 м слаб. ливневой дождь, в посл. час гроза 9/3 400 м
[Cu Sc Ac lent Cs]
+27.5 +25.7 90 +41 +41 опасность
перегрева
1007.6 1007.3
В 2 18 км гроза без осадков 9/4 1500 м
[Cb cap Ac lent Cs]
+26.2 +24.8 92 +37 +37 очень
душно
1009.5 1009.2 +32.4 0.6
В 2 18 км в посл. час гроза 9/3 420 м
[Cb cap Ac lent Cs]
+25.3 +23.9 92 +35 +35 очень
душно
1010.2 1009.9
В 2 18 км зарница {гроза} 9/3 420 м
[Cb cap Ac lent Cs]
+25.0 +23.8 93 +34 +34 очень
душно
1008.9 1008.6
В 3 18 км 9/1 420 м
[Cu Sc Ac lent Cs]
+24.4 +23.2 93 +33 +33 очень
душно
1008.4 1008.1
ЮВ 2 26 км 9/3 50 м
[Cu Sc Ac und Cs]
+25.9 +23.9 89 +36 +37 очень
душно
1009.8 1009.5 +24.0 0.6 0.6
З 2 26 км 9/4 420 м
[Cb cap Ac lent Cs]
+29.3 +25.7 81 +43 +49 опасность
перегрева
1010.9 1010.6
З 3 25 км 9/5 420 м
[Cb cap Ac lent Cs]
+31.1 +26.2 75 +47 +51 опасность
перегрева
1008.2 1007.9
В 1 4500 м гроза, ливневой дождь 10/6 400 м
[Cb cap Ac lent Cs]
+22.8 +22.4 98 +31 +31 очень
душно
1009.8 1009.5
Ю 3 18 км {гроза, дождь} 9/3 420 м
[Cu Sc Ac lent Cs]
+23.8 +23.1 96 +32 +32 очень
душно
1011.1 1010.8 +31.8 109
В 1 18 км 9/3 420 м
[Cu Sc Ac lent Cs]
+23.9 +23.4 97 +32 +32 очень
душно
1011.9 1011.6
ЮВ 1 18 км 9/3 420 м
[Cu Sc Ac lent Cs]
+23.7 +23.2 97 +32 +32 очень
душно
1010.5 1010.2
В 2 18 км 9/1 420 м
[Cu Sc Ac lent Cs]
+23.6 +22.9 96 +31 +31 очень
душно
1009.8 1009.5
В 2 15 км осадки на расстоянии 9/4 1000 м
[Cu Sc Ac lent Cs]
+25.2 +23.6 91 +34 +35 очень
душно
1012.3 1012.0 +21.9 109 109.2
З 2 25 км 9/1 420 м
[Cu Sc Ac lent Cs]
+28.7 +24.5 78 +41 +48 опасность
перегрева
1011.4 1011.1
СЗ 2 24 км 9/3 420 м
[Cu Sc Ac lent Cs]
+30.3 +25.0 73 +43 +49 опасность
перегрева
1009.1 1008.8
штиль 0 24 км 9/3 450 м
[Cu Sc Ac lent Cs]
+29.6 +25.7 80 +44 +45 опасность
перегрева
1008.5 1008.2
В 2 18 км зарница 9/3 1500 м
[Cb cap Ac lent Cs]
+27.1 +24.8 87 +39 +39 очень
душно
1010.4 1010.1 +30.7
ЮВ 2 18 км 9/1 450 м
[Cu Sc Ac trans Ci sp]
+25.7 +24.1 91 +36 +36 очень
душно
1011.5 1011.2
В 3 18 км 9/1 450 м
[Cu Sc Ac trans Ci sp]
+25.0 +23.4 91 +34 +34 очень
душно
1010.5 1010.2
В 2 18 км 9/1 450 м
[Cu Sc Ac trans Ci sp]
+24.0 +22.8 93 +32 +32 очень
душно
1009.6 1009.3
В 2 25 км 9/1 50 м
[Cu Sc Ac lent Ci sp]
+26.9 +23.9 84 +37 +39 очень
душно
1011.1 1010.8 +24.0
З 2 25 км 9/1 450 м
[Cu Sc Ac lent Ci sp]
+31.1 +25.4 72 +45 +53 опасность
перегрева
1011.4 1011.1
СЗ 2 25 км 9/3 420 м
[Cu Sc Ac lent Ci sp]
+31.1 +25.9 74 +46 +52 опасность
перегрева
1009.2 1008.9
В 2 25 км в посл. час дождь 9/3 420 м
[Cb cap Ac lent Cs]
+29.1 +25.7 82 +43 +44 опасность
перегрева
1007.9 1007.6
СВ 2 18 км {дождь} 9/1 420 м
[Cu Sc Ac lent Cs]
+26.9 +24.8 88 +38 +38 очень
душно
1009.3 1009.0 +32.0 0.0
В 1 18 км 9/1 420 м
[Cu Sc Ac lent Cs]
+25.4 +23.5 89 +34 +34 очень
душно
1010.1 1009.8
ЮВ 2 18 км 9/1 420 м
[Cu Sc Ac lent Cs]
+24.6 +23.0 91 +33 +33 очень
душно
1008.6 1008.3
В 2 18 км 9/1 420 м
[Cu Sc Ac lent Cs]
+24.4 +22.8 91 +32 +32 очень
душно
1008.4 1008.1
В 3 25 км 9/1 50 м
[Cu Sc Ac lent Cs]
+25.8 +23.3 86 +35 +36 очень
душно
1010.8 1010.5 +24.3 0.0 0.0
ЮВ 2 8000 м слаб. дождь 9/4 420 м
[Cu Sc Ac lent Cs]
+25.2 +24.2 94 +35 +41 очень
душно
1011.0 1010.7
С 1 23 км в посл. час дождь 9/3 420 м
[Cu Sc Ac lent Cs]
+28.6 +25.1 81 +41 +48 опасность
перегрева
1008.3 1008.0 6
штиль 0 23 км 9/3 420 м
[Cu Sc Ac lent Cs]
+28.2 +24.6 81 +40 +41 очень
душно
1007.5 1007.2
ЮВ 2 18 км 9/3 420 м
[Cu Sc Ac lent Cs]
+26.2 +24.4 90 +37 +37 очень
душно
1008.3 1008.0 +26.3
Местоположение метеостанции Кота-Кинабалу (Малайзия): широта 5.93 долгота 116.05 высота над уровнем моря 3 м.
В архиве по умолчанию представлена погода в Кота-Кинабалу за последнюю неделю. Архивные данные за месяц целиком и за предыдущие месяцы, начиная с января 2011 года, Вы можете получить, выбрав интересующий диапазон дат из раскрывающегося списка и нажав кнопку "Найти!".
*Определитесь, кто Вы:
Внимание! Время в таблицах - всемирное. Для получения местного времени необходимо прибавить поправку, которая равна 8 ч.
Смотрите также архив погоды в соседних городах и на ближайших метеорологических станциях:
Партнеры нашего сайта:      
Пояснения к столбцам:
  • Ветер - указаны скорость ветра в м/с - средняя за 10 мин, порывы в срок и между сроками (в фигурных скобках) и направление, откуда дует ветер: С - северный,
  • СВ - северо-восточный, В - восточный, ЮВ - юго-восточный, Ю - южный, ЮЗ - юго-западный, З - западный, СЗ - северо-западный.
  • Видимость - горизонтальная дальность видимости в метрах или километрах. При видимости от 1 до 10 км при отсутствии осадков обычно наблюдается дымка, при ухудшении видимости до 1 км и менее - туман. В сухую погоду видимость может ухудшаться дымом, пылью или мглою.
  • Явления - указаны атмосферные явления, наблюдавшиеся в срок или в последний час перед сроком; фигурными скобками обозначены явления, наблюдавшиеся между сроками (за 1-3 часа до срока); квадратными скобками обозначены град или гололедные отложения с указанием их диаметра в мм.
  • Облачность - указаны через наклонную черту общая и нижняя облачность в баллах и высота нижней границы облаков в метрах; квадратными скобками обозначены формы облаков: Ci - перистые, Cs - перисто-слоистые, Cc - перисто-кучевые, Ac - высококучевые, As - высокослоистые, Sc - слоисто-кучевые, Ns - слоисто-дождевые, Cu - кучевые, Cb - кучево-дождевые. Подробнее классификацию облаков см. в Атласе облаков (PDF).
  • T - Температура воздуха - температура, измеренная на высоте 2 м над землей.
  • Td - Температура точки росы - температура, при понижении до которой содержащийся в воздухе водяной пар достигнет насыщения.
  • f - Относительная влажность воздуха - влажноcть воздуха, измеренная на высоте 2 м над землей.
  • Te - Эффективная температура - температура, которую ощущает одетый по сезону человек в тени. Характеристика душности погоды. При расчете учитывается влияние влажности воздуха и скорости ветра на теплоощущения человека.
  • Tes - Эффективная температура на солнце - температура, которую ощущает человек, с поправкой на солнечный нагрев. Характеристика знойности погоды. Зависит от высоты солнца над горизонтом, облачности и скорости ветра. Ночью, в пасмурную погоду, а также при ветре 12 м/с и более поправка равна нулю.
  • P - Атмосферное давление - приведенное к уровню моря атмосферное давление.
  • Po - Атмосферное давление - измеренное на уровне метеостанции атмосферное давление.
  • Tmin - Минимальная температура - минимум температуры воздуха на высоте 2 м над землей.
  • Tmax - Максимальная температура - максимум температуры воздуха на высоте 2 м над землей.
  • R - Количество осадков - Количество выпавших осадков за период времени, мм. При наведении курсора мыши на число - период времени, за который выпало указанное количество осадков.
  • R24 - Количество осадков - Количество выпавших осадков за 24 часа, мм.
  • S - Снежный покров - Высота снежного покрова, см. При наведении курсора мыши на число - состояние снежного покрова и степень покрытия местности в баллах.